Date String (YYYY-MM-DD hh:mm:ss) UTC,Instrument flags,Ambient pressure (hPa),Sample flow (lpm),Bypass flow (lpm),Sample temperature (°C),Ambient temperature (°C),ASC tube jacket temperature (°C),LED temperature (°C),Box temperature (°C),Sample RH (%),Span deviation,Mass concentration (μg/m³),Mass concentration (μg/m³),Mass concentration (μg/m³)
DateTimeUTC,F1_M11,P_M11,Q1_M11,Q2_M11,T1_M11,T2_M11,T3_M11,T4_M11,T5_M11,U1_M11,ZSPAN_M11,X0_M11,X2_M11,X1_M11
2021-12-01 15:00:00,,0828.5,5.00,0.00,26.1,25.2,00.0,35.1,28.0,10.3,0000.0,0010.50,0003.19,0001.68
2021-12-01 15:01:00,,0828.5,5.00,0.00,26.1,25.2,00.0,35.1,27.9,10.3,0000.0,0009.80,0003.18,0001.67
2021-12-01 15:02:00,,0828.8,4.99,0.00,26.1,25.2,00.0,35.1,27.9,10.3,0000.0,0009.27,0003.15,0001.65
2021-12-01 15:03:00,,0829.0,5.02,0.00,26.1,25.2,00.0,35.1,27.9,10.3,0000.0,0009.55,0003.14,0001.63
2021-12-01 15:04:00,,0828.9,4.98,0.00,26.2,25.3,00.0,35.1,27.9,10.5,0000.0,0009.62,0003.14,0001.64
2021-12-01 15:05:00,,0829.0,4.99,0.00,26.2,25.3,00.0,35.1,27.9,10.4,0000.0,0009.59,0003.15,0001.65
2021-12-01 15:06:00,,0829.1,5.00,0.00,26.2,25.3,00.0,35.1,27.9,10.3,0000.0,0008.94,0003.14,0001.64
2021-12-01 15:07:00,,0828.9,5.01,0.00,26.2,25.3,00.0,35.1,28.0,10.2,0000.0,0009.11,0003.21,0001.63
2021-12-01 15:08:00,,0829.0,4.99,0.00,26.2,25.3,00.0,35.1,28.0,10.2,0000.0,0009.62,0003.27,0001.62
2021-12-01 15:09:00,,0828.9,5.01,0.00,26.2,25.3,00.0,35.1,28.0,10.2,0000.0,0009.27,0003.26,0001.62
2021-12-01 15:10:00,,0829.1,5.01,0.00,26.2,25.3,00.0,35.1,28.0,10.1,0000.0,0008.53,0003.23,0001.57
2021-12-01 15:11:00,,0828.9,4.99,0.00,26.2,25.3,00.0,35.1,28.0,10.3,0000.0,0008.59,0003.21,0001.55
2021-12-01 15:12:00,,0828.6,5.01,0.00,26.2,25.3,00.0,35.1,28.0,10.2,0000.0,0008.69,0003.21,0001.56
2021-12-01 15:13:00,,0828.7,4.99,0.00,26.2,25.3,00.0,35.1,28.0,10.1,0000.0,0008.61,0003.21,0001.55
2021-12-01 15:14:00,,0828.7,5.01,0.00,26.2,25.3,00.0,35.1,28.0,10.0,0000.0,0008.19,0003.20,0001.52
2021-12-01 15:15:00,,0829.1,5.00,0.00,26.2,25.3,00.0,35.1,28.0,10.1,0000.0,0007.82,0003.09,0001.45
2021-12-01 15:16:00,,0829.1,4.99,0.00,26.2,25.3,00.0,35.1,28.0,10.0,0000.0,0007.58,0002.94,0001.38
2021-12-01 15:17:00,,0829.2,5.01,0.00,26.2,25.3,00.0,35.1,28.0,10.4,0000.0,0007.65,0002.84,0001.33
2021-12-01 15:18:00,,0829.2,4.98,0.00,26.2,25.3,00.0,35.1,28.0,10.7,0000.0,0008.39,0002.73,0001.30
2021-12-01 15:19:00,,0828.8,5.01,0.00,26.2,25.4,00.0,35.2,28.0,10.4,0000.0,0008.71,0002.56,0001.28
2021-12-01 15:20:00,,0828.7,4.99,0.00,26.2,25.4,00.0,35.2,28.0,10.1,0000.0,0008.95,0002.51,0001.25
2021-12-01 15:21:00,,0828.9,5.00,0.00,26.2,25.4,00.0,35.2,28.0,10.1,0000.0,0008.82,0002.42,0001.22
2021-12-01 15:22:00,,0829.0,5.00,0.00,26.3,25.4,00.0,35.2,28.0,10.1,0000.0,0009.53,0002.45,0001.18
2021-12-01 15:23:00,,0829.0,4.99,0.00,26.3,25.4,00.0,35.2,28.0,10.0,0000.0,0009.59,0002.37,0001.12
2021-12-01 15:24:00,,0829.0,4.99,0.00,26.3,25.4,00.0,35.2,28.1,10.3,0000.0,0010.01,0002.34,0001.07
2021-12-01 15:25:00,,0829.0,5.01,0.00,26.3,25.4,00.0,35.2,28.1,10.5,0000.0,0010.46,0002.40,0001.08
2021-12-01 15:26:00,,0829.0,5.00,0.00,26.3,25.4,00.0,35.2,28.1,10.5,0000.0,0010.67,0002.49,0001.09
2021-12-01 15:27:00,,0828.8,5.00,0.00,26.3,25.4,00.0,35.2,28.1,10.3,0000.0,0010.58,0002.49,0001.06
2021-12-01 15:28:00,,0829.0,5.00,0.00,26.3,25.5,00.0,35.2,28.1,10.4,0000.0,0010.35,0002.41,0001.01
2021-12-01 15:29:00,,0829.1,4.99,0.00,26.3,25.4,00.0,35.2,28.1,10.5,0000.0,0009.37,0002.30,0000.95
2021-12-01 15:30:00,,0828.9,5.00,0.00,26.3,25.5,00.0,35.2,28.1,10.6,0000.0,0008.47,0002.26,0000.90
2021-12-01 15:31:00,,0828.7,4.99,0.00,26.3,25.5,00.0,35.2,28.1,10.6,0000.0,0008.10,0002.16,0000.85
2021-12-01 15:32:00,,0828.9,5.00,0.00,26.3,25.5,00.0,35.2,28.1,10.8,0000.0,0007.95,0002.04,0000.79
2021-12-01 15:33:00,,0829.2,4.99,0.00,26.4,25.5,00.0,35.3,28.2,11.1,0000.0,0006.97,0001.91,0000.76
2021-12-01 15:34:00,,0828.8,5.01,0.00,26.4,25.5,00.0,35.3,28.2,11.7,0000.0,0007.73,0002.06,0000.82
2021-12-01 15:35:00,,0828.7,5.00,0.00,26.4,25.5,00.0,35.3,28.2,11.6,0000.0,0007.59,0002.26,0000.91
2021-12-01 15:36:00,,0829.0,5.00,0.00,26.4,25.5,00.0,35.3,28.2,11.4,0000.0,0007.39,0002.31,0000.98
2021-12-01 15:37:00,,0828.7,4.99,0.00,26.4,25.5,00.0,35.3,28.2,11.3,0000.0,0007.56,0002.34,0001.05
2021-12-01 15:38:00,,0828.9,5.01,0.00,26.4,25.5,00.0,35.3,28.1,11.4,0000.0,0008.59,0002.42,0001.15
2021-12-01 15:39:00,,0828.7,4.99,0.00,26.4,25.5,00.0,35.3,28.1,11.3,0000.0,0008.60,0002.46,0001.22
2021-12-01 15:40:00,,0828.8,5.00,0.00,26.4,25.5,00.0,35.3,28.1,11.3,0000.0,0009.16,0002.57,0001.28
2021-12-01 15:41:00,,0829.3,5.01,0.00,26.4,25.5,00.0,35.3,28.1,11.4,0000.0,0009.78,0002.79,0001.39
2021-12-01 15:42:00,,0829.2,5.02,0.00,26.4,25.5,00.0,35.3,28.2,11.0,0000.0,0010.05,0002.95,0001.49
2021-12-01 15:43:00,,0829.1,4.98,0.00,26.4,25.5,00.0,35.3,28.1,11.0,0000.0,0010.44,0003.13,0001.57
2021-12-01 15:44:00,,0828.8,5.00,0.00,26.4,25.5,00.0,35.3,28.1,11.1,0000.0,0011.12,0003.21,0001.68
2021-12-01 15:45:00,,0828.8,5.01,0.00,26.4,25.5,00.0,35.3,28.1,10.8,0000.0,0010.75,0003.19,0001.70
2021-12-01 15:46:00,,0828.9,4.99,0.00,26.4,25.5,00.0,35.3,28.1,10.8,0000.0,0010.73,0003.12,0001.64
2021-12-01 15:47:00,,0828.8,4.99,0.00,26.4,25.5,00.0,35.3,28.2,10.7,0000.0,0010.47,0003.05,0001.59
2021-12-01 15:48:00,,0828.9,4.99,0.00,26.4,25.5,00.0,35.3,28.1,10.7,0000.0,0010.55,0003.09,0001.57
2021-12-01 15:49:00,,0829.3,5.00,0.00,26.4,25.5,00.0,35.3,28.2,10.7,0000.0,0009.84,0003.16,0001.54
2021-12-01 15:50:00,,0829.3,5.00,0.00,26.4,25.6,00.0,35.3,28.2,10.6,0000.0,0010.36,0003.20,0001.53
2021-12-01 15:51:00,,0829.1,4.99,0.00,26.4,25.6,00.0,35.3,28.2,10.6,0000.0,0009.85,0003.17,0001.51
2021-12-01 15:52:00,,0829.3,5.01,0.00,26.4,25.6,00.0,35.3,28.2,10.4,0000.0,0009.27,0003.04,0001.43
2021-12-01 15:53:00,,0829.1,4.99,0.00,26.4,25.6,00.0,35.3,28.2,10.4,0000.0,0009.37,0002.98,0001.37
2021-12-01 15:54:00,,0828.8,5.00,0.00,26.4,25.6,00.0,35.3,28.2,10.5,0000.0,0010.79,0002.86,0001.33
2021-12-01 15:55:00,,0829.0,5.00,0.00,26.4,25.6,00.0,35.3,28.2,10.4,0000.0,0010.32,0002.78,0001.24
2021-12-01 15:56:00,,0829.0,5.01,0.00,26.4,25.6,00.0,35.3,28.2,10.4,0000.0,0009.84,0002.61,0001.17
2021-12-01 15:57:00,,0829.0,4.99,0.00,26.4,25.6,00.0,35.3,28.2,10.4,0000.0,0009.60,0002.46,0001.12
2021-12-01 15:58:00,,0829.0,5.01,0.00,26.4,25.6,00.0,35.3,28.3,10.5,0000.0,0009.47,0002.34,0001.07
2021-12-01 15:59:00,,0829.0,4.99,0.00,26.4,25.6,00.0,35.4,28.3,10.6,0000.0,0009.02,0002.17,0001.00
